Weather History for Council Bluffs, IA

Change the Weather History Date:

Monday, October 22, 2012

  Actual Average Record
Temperature  
Mean Temperature 64 °F -  
Max Temperature 68 °F 60 °F 80 °F (2003)
Min Temperature 57 °F 41 °F 32 °F (1997)
Degree Days  
Heating Degree Days 2    
Growing Degree Days 14 (Base 50)    
Moisture  
Dew Point 61 °F    
Average Humidity 92    
Maximum Humidity 100    
Minimum Humidity 82    
Precipitation  
Precipitation 0.04 in - - ()
Sea Level Pressure  
Sea Level Pressure 29.77 in    
Wind  
Wind Speed 7 mph (North)    
Max Wind Speed 16 mph    
Max Gust Speed -    
Visibility 5 miles    
Events Rain    
Averages and records for this station are not official NWS values.
T = Trace of Precipitation, MM = Missing Value Source: NWS Daily Summary

Daily Weather History Graph

Daily Weather History Graph

Search for Another Location

Airport:

Trip Planner

Search our weather history database for the weather conditions in past years. The results will help you decide how hot, cold, wet, or windy it might be!

Date:

Astronomy

Oct. 22, 2012 Rise Set
Actual Time 7:43 AM CDT 6:30 PM CDT
Civil Twilight 7:15 AM CDT 6:59 PM CDT
Nautical Twilight 6:42 AM CDT 7:31 PM CDT
Astronomical Twilight 6:10 AM CDT 8:03 PM CDT
Moon 2:43 PM CDT 12:27 AM CDT
Length of Visible Light 11h 44m
Length of Day
10h 47m
First Quarter, 56% of the Moon is Illuminated
Oct 22
First Quarter
Oct 29
Full
Nov 6
Last Quarter
Nov 13
New
Nov 20
First Quarter

Hourly Weather History & Observations

Time (CDT) Temp. Dew Point Humidity Pressure Visibility Wind Dir Wind Speed Gust Speed Precip Events Conditions
12:15 AM 68.0 °F 62.6 °F 83% 29.78 in 7.0 mi SE 5.8 mph - N/A   Overcast
12:55 AM 66.2 °F 62.6 °F 88% 29.77 in 7.0 mi SE 6.9 mph - N/A   Mostly Cloudy
1:15 AM 66.2 °F 62.6 °F 88% 29.76 in 6.0 mi ESE 4.6 mph - N/A   Overcast
1:35 AM 66.2 °F 62.6 °F 88% 29.76 in 3.0 mi Calm Calm - N/A Rain Light Rain
1:55 AM 64.4 °F 62.6 °F 94% 29.76 in 5.0 mi NE 4.6 mph - N/A   Light Drizzle
2:15 AM 64.4 °F 62.6 °F 94% 29.76 in 5.0 mi NNE 5.8 mph - N/A   Overcast
2:35 AM 64.4 °F 62.6 °F 94% 29.76 in 3.0 mi North 5.8 mph - N/A   Light Drizzle
2:55 AM 62.6 °F 60.8 °F 94% 29.76 in 5.0 mi North 6.9 mph - 0.01 in   Overcast
3:15 AM 62.6 °F 60.8 °F 94% 29.76 in 6.0 mi North 5.8 mph - N/A   Overcast
3:55 AM 60.8 °F 59.0 °F 94% 29.75 in 5.0 mi NNE 6.9 mph - 0.03 in   Overcast
4:15 AM 60.8 °F 59.0 °F 94% 29.75 in 5.0 mi North 6.9 mph - N/A   Overcast
4:35 AM 60.8 °F 59.0 °F 94% 29.75 in 5.0 mi North 8.1 mph - N/A   Overcast
4:55 AM 60.8 °F 59.0 °F 94% 29.76 in 4.0 mi North 6.9 mph - N/A   Overcast
5:15 AM 60.8 °F 60.8 °F 100% 29.76 in 3.0 mi NE 8.1 mph - N/A   Overcast
5:35 AM 64.4 °F 62.6 °F 94% 29.76 in 2.5 mi NE 8.1 mph - N/A   Overcast
5:55 AM 64.4 °F 62.6 °F 94% 29.76 in 3.0 mi NE 8.1 mph - N/A   Overcast
6:15 AM 64.4 °F 64.4 °F 100% 29.77 in 3.0 mi ENE 4.6 mph - N/A   Overcast
6:35 AM 64.4 °F 62.6 °F 94% 29.77 in 3.0 mi NE 4.6 mph - N/A   Overcast
7:15 AM 62.6 °F 62.6 °F 100% 29.77 in 2.5 mi NNE 3.5 mph - N/A   Mist
7:35 AM 62.6 °F 60.8 °F 94% 29.78 in 2.5 mi North 4.6 mph - N/A   Overcast
7:55 AM 60.8 °F 60.8 °F 100% 29.79 in 3.0 mi NNE 9.2 mph - N/A   Overcast
8:15 AM 60.8 °F 59.0 °F 94% 29.79 in 2.0 mi NNE 8.1 mph - N/A   Mist
8:35 AM 60.8 °F 59.0 °F 94% 29.79 in 2.5 mi North 9.2 mph - N/A   Mist
8:55 AM 60.8 °F 59.0 °F 94% 29.79 in 4.0 mi North 6.9 mph - N/A   Mist
9:15 AM 60.8 °F 60.8 °F 100% 29.79 in 3.0 mi North 6.9 mph - N/A   Mist
9:35 AM 62.6 °F 60.8 °F 94% 29.80 in 4.0 mi North 10.4 mph - N/A   Mist
9:55 AM 62.6 °F 60.8 °F 94% 29.80 in 5.0 mi NNE 12.7 mph - N/A   Mist
10:15 AM 62.6 °F 60.8 °F 94% 29.80 in 5.0 mi NNE 11.5 mph - N/A   Mist
10:35 AM 62.6 °F 60.8 °F 94% 29.80 in 5.0 mi NNE 11.5 mph - N/A   Mist
10:55 AM 62.6 °F 60.8 °F 94% 29.81 in 5.0 mi NNE 10.4 mph - N/A   Mist
11:15 AM 62.6 °F 60.8 °F 94% 29.80 in 4.0 mi NNE 9.2 mph - N/A   Mist
11:35 AM 62.6 °F 60.8 °F 94% 29.80 in 4.0 mi NE 9.2 mph - N/A   Mist
11:55 AM 62.6 °F 60.8 °F 94% 29.79 in 2.5 mi NNE 9.2 mph - N/A   Light Drizzle
12:15 PM 62.6 °F 60.8 °F 94% 29.79 in 1.8 mi NNE 10.4 mph - N/A   Light Drizzle
12:35 PM 64.4 °F 62.6 °F 94% 29.78 in 3.0 mi North 9.2 mph - N/A   Mist
12:55 PM 64.4 °F 62.6 °F 94% 29.77 in 4.0 mi North 9.2 mph - N/A   Mist
1:15 PM 64.4 °F 62.6 °F 94% 29.78 in 4.0 mi NNE 5.8 mph - N/A   Mist
1:35 PM 64.4 °F 62.6 °F 94% 29.78 in 4.0 mi North 4.6 mph - N/A   Mist
1:55 PM 66.2 °F 62.6 °F 88% 29.77 in 4.0 mi North 8.1 mph - N/A   Mist
2:15 PM 66.2 °F 64.4 °F 94% 29.77 in 4.0 mi North 6.9 mph - N/A   Mist
2:35 PM 66.2 °F 64.4 °F 94% 29.76 in 4.0 mi North 9.2 mph - N/A   Mist
2:55 PM 64.4 °F 62.6 °F 94% 29.75 in 5.0 mi North 9.2 mph - N/A   Mist
3:15 PM 64.4 °F 62.6 °F 94% 29.76 in 5.0 mi North 6.9 mph - N/A   Mist
3:35 PM 66.2 °F 62.6 °F 88% 29.75 in 4.0 mi North 9.2 mph - N/A   Overcast
3:55 PM 66.2 °F 62.6 °F 88% 29.76 in 5.0 mi North 6.9 mph - N/A   Overcast
4:15 PM 66.2 °F 62.6 °F 88% 29.75 in 5.0 mi North 8.1 mph - N/A   Overcast
4:35 PM 68.0 °F 64.4 °F 88% 29.74 in 5.0 mi NNE 8.1 mph - N/A   Mostly Cloudy
4:55 PM 68.0 °F 64.4 °F 88% 29.75 in 5.0 mi North 6.9 mph - N/A   Mostly Cloudy
5:15 PM 68.0 °F 64.4 °F 88% 29.76 in 5.0 mi North 6.9 mph - N/A   Overcast
5:35 PM 68.0 °F 64.4 °F 88% 29.77 in 5.0 mi NNW 4.6 mph - N/A   Overcast
5:55 PM 68.0 °F 64.4 °F 88% 29.76 in 5.0 mi North 8.1 mph - N/A   Overcast
6:15 PM 66.2 °F 64.4 °F 94% 29.75 in 4.0 mi North 6.9 mph - N/A   Overcast
6:35 PM 66.2 °F 64.4 °F 94% 29.75 in 4.0 mi North 6.9 mph - N/A   Overcast
6:55 PM 66.2 °F 62.6 °F 88% 29.75 in 6.0 mi North 5.8 mph - N/A   Mostly Cloudy
7:15 PM 64.4 °F 62.6 °F 94% 29.75 in 7.0 mi North 4.6 mph - N/A   Overcast
7:35 PM 64.4 °F 62.6 °F 94% 29.75 in 7.0 mi NW 5.8 mph - N/A   Overcast
7:55 PM 64.4 °F 60.8 °F 88% 29.75 in 7.0 mi WNW 5.8 mph - N/A   Overcast
8:15 PM 62.6 °F 59.0 °F 88% 29.76 in 8.0 mi SW 16.1 mph - N/A   Overcast
8:55 PM 62.6 °F 57.2 °F 82% 29.76 in 9.0 mi WSW 10.4 mph - N/A   Unknown
9:15 PM 62.6 °F 57.2 °F 82% 29.77 in 9.0 mi WSW 11.5 mph - N/A   Unknown
9:55 PM 62.6 °F 57.2 °F 82% 29.78 in 8.0 mi WSW 4.6 mph - N/A   Unknown
10:15 PM 62.6 °F 57.2 °F 82% 29.78 in 7.0 mi South 4.6 mph - N/A   Unknown
10:35 PM 59.0 °F 55.4 °F 88% 29.77 in 7.0 mi South 4.6 mph - N/A   Unknown
10:55 PM 59.0 °F 55.4 °F 88% 29.77 in 5.0 mi South 6.9 mph - N/A   Mist
11:15 PM 59.0 °F 55.4 °F 88% 29.77 in 5.0 mi SSW 6.9 mph - N/A   Mist
11:35 PM 57.2 °F 55.4 °F 94% 29.77 in 5.0 mi SW 10.4 mph - N/A   Mist